Astra — PB4187 — position and weather

sailwx.info

Track history (hours):
 
Tides and Currents Weather Stations Pressure Air Temp Water Temp Dewpoint Dewpoint Depression Visibility Wind Speed Wind Dir Waves Ship Positions

Astra

Last reported at 2014-Jul-23 15:32 UTC. Time now 2014-Jul-24 20:06 UTC.
Position N 50°49' E 007°01'.

Length 110 m.

Type: Tanker. MMSI: 244650752.

Date/timePositionNaut miles runAvg speedWind from/ knotsBaromVisibWave heightAir tempDewpointWater temp
2014-Jul-23 15:32N 50°49' E 007°01'2 2.4
2014-Jul-23 14:32N 50°52' E 007°01'3 2.6
2014-Jul-23 13:12N 50°55' E 006°59'16 3.1
2014-Jul-23 08:04N 51°09' E 006°48'2 4.1
2014-Jul-23 07:33N 51°11' E 006°47'55 3.2
2014-Jul-22 14:24N 51°52' E 005°49'6 5.9
2014-Jul-22 13:19N 51°54' E 005°39'5 5.7
2014-Jul-22 12:31N 51°53' E 005°31'5 5.2
2014-Jul-22 11:33N 51°51' E 005°25'4 4.2
2014-Jul-22 10:33N 51°49' E 005°18'6 5.7
2014-Jul-22 09:33N 51°49' E 005°09'6 6.1
2014-Jul-22 08:33N 51°49' E 004°59'8 7.0
2014-Jul-22 07:29N 51°48' E 004°47'11 7.8
2014-Jul-22 06:06N 51°42' E 004°33'5 8.1
2014-Jul-22 05:31N 51°42' E 004°25'6 5.7
2014-Jul-22 04:33N 51°39' E 004°17'5 4.2
2014-Jul-22 03:19N 51°40' E 004°09'6 7.7
2014-Jul-22 02:33N 51°36' E 004°01'6 5.6
2014-Jul-22 01:33N 51°31' E 004°01'4 4.1
2014-Jul-22 00:33N 51°27' E 003°59'6 5.6
2014-Jul-21 23:33N 51°22' E 003°53'6 6.6
2014-Jul-21 22:34N 51°25' E 003°43'2 2.1
2014-Jul-21 21:33N 51°27' E 003°43'0 0.3
2014-Jul-21 20:33N 51°27' E 003°43'0 0.0
2014-Jul-21 20:18N 51°27' E 003°43'0 0.0
2014-Jul-21 19:33N 51°27' E 003°43'0 0.0
2014-Jul-21 18:33N 51°27' E 003°43'0 0.0
2014-Jul-21 17:33N 51°27' E 003°43'0 0.0
2014-Jul-21 16:33N 51°27' E 003°43'0 0.0
2014-Jul-21 15:33N 51°27' E 003°43'0 0.0
2014-Jul-21 14:33N 51°27' E 003°43'0 0.0
2014-Jul-21 13:33N 51°27' E 003°43'0 0.0
2014-Jul-21 12:33N 51°27' E 003°43'0 0.0
2014-Jul-21 11:33N 51°27' E 003°43'0 0.0
2014-Jul-21 10:33N 51°27' E 003°43'0 0.0
2014-Jul-21 09:33N 51°27' E 003°43'0 0.0
2014-Jul-21 08:33N 51°27' E 003°43'0 0.0
2014-Jul-21 07:33N 51°27' E 003°43'0 0.0
2014-Jul-21 06:33N 51°27' E 003°43'0 0.0
2014-Jul-21 05:33N 51°27' E 003°43'0 0.0
2014-Jul-21 04:33N 51°27' E 003°43'3 2.6
2014-Jul-21 03:33N 51°24' E 003°45'7 6.8
2014-Jul-21 02:33N 51°25' E 003°55'4 4.0
2014-Jul-21 01:33N 51°28' E 004°01'7 7.0
2014-Jul-21 00:33N 51°34' E 003°58'8 7.9
2014-Jul-20 23:33N 51°40' E 004°07'5 5.1
2014-Jul-20 22:33N 51°39' E 004°15'7 6.2
2014-Jul-20 21:29N 51°41' E 004°25'7 7.9
2014-Jul-20 20:33N 51°43' E 004°37'8 8.4
2014-Jul-20 19:34N 51°51' E 004°40'6 6.4
2014-Jul-20 18:33N 51°55' E 004°47'9 9.0
2014-Jul-20 17:34N 51°58' E 005°01'5 5.2
2014-Jul-20 16:33N 52°02' E 005°07'9 8.5
2014-Jul-20 15:33N 52°10' E 004°60'9 9.0
2014-Jul-20 14:33N 52°18' E 005°01'7 7.1
2014-Jul-20 13:33N 52°24' E 004°53'4 3.9
2014-Jul-20 12:33N 52°25' E 004°47'0 0.0
2014-Jul-20 11:33N 52°25' E 004°47'0 0.0
2014-Jul-20 10:33N 52°25' E 004°47'0 0.0
2014-Jul-20 09:33N 52°25' E 004°47'0 0.0
2014-Jul-20 08:33N 52°25' E 004°47'0 0.0
2014-Jul-20 07:33N 52°25' E 004°47'0 0.0
2014-Jul-20 06:33N 52°25' E 004°47'0 0.0
2014-Jul-20 05:33N 52°25' E 004°47'0 0.0
2014-Jul-20 04:33N 52°25' E 004°47'0 0.2
2014-Jul-20 03:33N 52°25' E 004°48'0 0.0
2014-Jul-20 02:33N 52°25' E 004°48'0 0.0
2014-Jul-20 01:33N 52°25' E 004°48'0 0.0
2014-Jul-20 00:33N 52°25' E 004°48'0 0.0
2014-Jul-19 23:33N 52°25' E 004°48'0 0.0
2014-Jul-19 22:33N 52°25' E 004°48'0 0.0
2014-Jul-19 21:33N 52°25' E 004°48'0 0.0
2014-Jul-19 20:33N 52°25' E 004°48'0 0.0
2014-Jul-19 19:33N 52°25' E 004°48'0 0.0
2014-Jul-19 18:33N 52°25' E 004°48'0 0.0
2014-Jul-19 17:33N 52°25' E 004°48'0 0.0
2014-Jul-19 16:33N 52°25' E 004°48'0 0.0
2014-Jul-19 15:33N 52°25' E 004°48'0 0.0
2014-Jul-19 14:33N 52°25' E 004°48'0 0.0
2014-Jul-19 13:33N 52°25' E 004°48'0 0.0
2014-Jul-19 12:33N 52°25' E 004°48'0 0.0
2014-Jul-19 11:33N 52°25' E 004°48'0 0.0
2014-Jul-19 10:33N 52°25' E 004°48'0 0.0
2014-Jul-19 09:33N 52°25' E 004°48'0 0.0
2014-Jul-19 08:33N 52°25' E 004°48'0 0.0
2014-Jul-19 07:33N 52°25' E 004°48'0 0.0
2014-Jul-19 06:33N 52°25' E 004°48'0 0.0
2014-Jul-19 05:33N 52°25' E 004°48'0 0.0
2014-Jul-19 04:33N 52°25' E 004°48'0 0.0
2014-Jul-19 03:33N 52°25' E 004°48'0 0.0
2014-Jul-19 02:33N 52°25' E 004°48'0 0.0
2014-Jul-19 01:33N 52°25' E 004°48'0 0.0
2014-Jul-19 00:33N 52°25' E 004°48'0 0.0
2014-Jul-18 23:33N 52°25' E 004°48'2 1.7
2014-Jul-18 22:33N 52°25' E 004°50'6 6.2
2014-Jul-18 21:33N 52°21' E 004°58'7 7.3
2014-Jul-18 20:33N 52°14' E 005°01'7 7.0
2014-Jul-18 19:33N 52°07' E 005°04'8 7.7
2014-Jul-18 18:33N 52°01' E 005°09'7 6.6
2014-Jul-18 17:33N 51°58' E 005°19'6 5.7
2014-Jul-18 16:33N 51°55' E 005°27'4 4.1
2014-Jul-18 15:33N 51°54' E 005°33'10 9.7
2014-Jul-18 14:28N 51°52' E 005°50'11 7.9
2014-Jul-18 13:04N 51°51' E 006°08'35 5.3
2014-Jul-18 06:33N 51°30' E 006°52'6 4.3
2014-Jul-18 05:10N 51°31' E 007°02'1 1.7
2014-Jul-18 04:33N 51°32' E 007°03'0 0.0
2014-Jul-18 03:33N 51°32' E 007°03'0 0.0
2014-Jul-18 02:33N 51°32' E 007°03'0 0.0
2014-Jul-18 01:33N 51°32' E 007°03'0 0.0
2014-Jul-18 00:33N 51°32' E 007°03'0 0.0
2014-Jul-17 23:33N 51°32' E 007°03'0 0.0
2014-Jul-17 22:33N 51°32' E 007°03'0 0.0
2014-Jul-17 21:33N 51°32' E 007°03'0 0.0
2014-Jul-17 20:33N 51°32' E 007°03'0 0.0
2014-Jul-17 09:26N 51°32' E 007°03'0 0.0
2014-Jul-17 07:27N 51°32' E 007°03'0 0.0
2014-Jul-16 20:03N 51°32' E 007°03'0 0.0
2014-Jul-16 05:19N 51°32' E 007°03'0 0.0
2014-Jul-15 14:32N 51°32' E 007°03'0 0.1
2014-Jul-15 13:33N 51°32' E 007°03'0 0.0
2014-Jul-15 12:31N 51°32' E 007°03'0 0.0
2014-Jul-15 11:32N 51°32' E 007°03'0 0.0
2014-Jul-15 10:33N 51°32' E 007°03'0 0.0
2014-Jul-15 09:31N 51°32' E 007°03'0 0.0
2014-Jul-15 08:21N 51°32' E 007°03'0 0.0
2014-Jul-15 07:32N 51°32' E 007°03'0 0.0
2014-Jul-15 06:33N 51°32' E 007°03'0 0.0
2014-Jul-15 05:33N 51°32' E 007°03'0 0.0
2014-Jul-15 04:33N 51°32' E 007°03'0 0.0
2014-Jul-15 03:33N 51°32' E 007°03'0 0.0
2014-Jul-15 02:33N 51°32' E 007°03'7 3.1
2014-Jul-15 00:22N 51°30' E 006°52'  
Track history (hours):
 
Tides and Currents Weather Stations Pressure Air Temp Water Temp Dewpoint Dewpoint Depression Visibility Wind Speed Wind Dir Waves Ship Positions

Astra

Last reported at 2014-Jul-23 15:32 UTC. Time now 2014-Jul-24 20:06 UTC.
Position N 50°49' E 007°01'.

Length 110 m.

Type: Tanker. MMSI: 244650752.

Date/timePositionNaut miles runAvg speedWind from/ knotsBaromVisibWave heightAir tempDewpointWater temp
2014-Jul-23 15:32N 50°49' E 007°01'2 2.4
2014-Jul-23 14:32N 50°52' E 007°01'3 2.6
2014-Jul-23 13:12N 50°55' E 006°59'16 3.1
2014-Jul-23 08:04N 51°09' E 006°48'2 4.1
2014-Jul-23 07:33N 51°11' E 006°47'55 3.2
2014-Jul-22 14:24N 51°52' E 005°49'6 5.9
2014-Jul-22 13:19N 51°54' E 005°39'5 5.7
2014-Jul-22 12:31N 51°53' E 005°31'5 5.2
2014-Jul-22 11:33N 51°51' E 005°25'4 4.2
2014-Jul-22 10:33N 51°49' E 005°18'6 5.7
2014-Jul-22 09:33N 51°49' E 005°09'6 6.1
2014-Jul-22 08:33N 51°49' E 004°59'8 7.0
2014-Jul-22 07:29N 51°48' E 004°47'11 7.8
2014-Jul-22 06:06N 51°42' E 004°33'5 8.1
2014-Jul-22 05:31N 51°42' E 004°25'6 5.7
2014-Jul-22 04:33N 51°39' E 004°17'5 4.2
2014-Jul-22 03:19N 51°40' E 004°09'6 7.7
2014-Jul-22 02:33N 51°36' E 004°01'6 5.6
2014-Jul-22 01:33N 51°31' E 004°01'4 4.1
2014-Jul-22 00:33N 51°27' E 003°59'6 5.6
2014-Jul-21 23:33N 51°22' E 003°53'6 6.6
2014-Jul-21 22:34N 51°25' E 003°43'2 2.1
2014-Jul-21 21:33N 51°27' E 003°43'0 0.3
2014-Jul-21 20:33N 51°27' E 003°43'0 0.0
2014-Jul-21 20:18N 51°27' E 003°43'0 0.0
2014-Jul-21 19:33N 51°27' E 003°43'0 0.0
2014-Jul-21 18:33N 51°27' E 003°43'0 0.0
2014-Jul-21 17:33N 51°27' E 003°43'0 0.0
2014-Jul-21 16:33N 51°27' E 003°43'0 0.0
2014-Jul-21 15:33N 51°27' E 003°43'0 0.0
2014-Jul-21 14:33N 51°27' E 003°43'0 0.0
2014-Jul-21 13:33N 51°27' E 003°43'0 0.0
2014-Jul-21 12:33N 51°27' E 003°43'0 0.0
2014-Jul-21 11:33N 51°27' E 003°43'0 0.0
2014-Jul-21 10:33N 51°27' E 003°43'0 0.0
2014-Jul-21 09:33N 51°27' E 003°43'0 0.0
2014-Jul-21 08:33N 51°27' E 003°43'0 0.0
2014-Jul-21 07:33N 51°27' E 003°43'0 0.0
2014-Jul-21 06:33N 51°27' E 003°43'0 0.0
2014-Jul-21 05:33N 51°27' E 003°43'0 0.0
2014-Jul-21 04:33N 51°27' E 003°43'3 2.6
2014-Jul-21 03:33N 51°24' E 003°45'7 6.8
2014-Jul-21 02:33N 51°25' E 003°55'4 4.0
2014-Jul-21 01:33N 51°28' E 004°01'7 7.0
2014-Jul-21 00:33N 51°34' E 003°58'8 7.9
2014-Jul-20 23:33N 51°40' E 004°07'5 5.1
2014-Jul-20 22:33N 51°39' E 004°15'7 6.2
2014-Jul-20 21:29N 51°41' E 004°25'7 7.9
2014-Jul-20 20:33N 51°43' E 004°37'8 8.4
2014-Jul-20 19:34N 51°51' E 004°40'6 6.4
2014-Jul-20 18:33N 51°55' E 004°47'9 9.0
2014-Jul-20 17:34N 51°58' E 005°01'5 5.2
2014-Jul-20 16:33N 52°02' E 005°07'9 8.5
2014-Jul-20 15:33N 52°10' E 004°60'9 9.0
2014-Jul-20 14:33N 52°18' E 005°01'7 7.1
2014-Jul-20 13:33N 52°24' E 004°53'4 3.9
2014-Jul-20 12:33N 52°25' E 004°47'0 0.0
2014-Jul-20 11:33N 52°25' E 004°47'0 0.0
2014-Jul-20 10:33N 52°25' E 004°47'0 0.0
2014-Jul-20 09:33N 52°25' E 004°47'0 0.0
2014-Jul-20 08:33N 52°25' E 004°47'0 0.0
2014-Jul-20 07:33N 52°25' E 004°47'0 0.0
2014-Jul-20 06:33N 52°25' E 004°47'0 0.0
2014-Jul-20 05:33N 52°25' E 004°47'0 0.0
2014-Jul-20 04:33N 52°25' E 004°47'0 0.2
2014-Jul-20 03:33N 52°25' E 004°48'0 0.0
2014-Jul-20 02:33N 52°25' E 004°48'0 0.0
2014-Jul-20 01:33N 52°25' E 004°48'0 0.0
2014-Jul-20 00:33N 52°25' E 004°48'0 0.0
2014-Jul-19 23:33N 52°25' E 004°48'0 0.0
2014-Jul-19 22:33N 52°25' E 004°48'0 0.0
2014-Jul-19 21:33N 52°25' E 004°48'0 0.0
2014-Jul-19 20:33N 52°25' E 004°48'0 0.0
2014-Jul-19 19:33N 52°25' E 004°48'0 0.0
2014-Jul-19 18:33N 52°25' E 004°48'0 0.0
2014-Jul-19 17:33N 52°25' E 004°48'0 0.0
2014-Jul-19 16:33N 52°25' E 004°48'0 0.0
2014-Jul-19 15:33N 52°25' E 004°48'0 0.0
2014-Jul-19 14:33N 52°25' E 004°48'0 0.0
2014-Jul-19 13:33N 52°25' E 004°48'0 0.0
2014-Jul-19 12:33N 52°25' E 004°48'0 0.0
2014-Jul-19 11:33N 52°25' E 004°48'0 0.0
2014-Jul-19 10:33N 52°25' E 004°48'0 0.0
2014-Jul-19 09:33N 52°25' E 004°48'0 0.0
2014-Jul-19 08:33N 52°25' E 004°48'0 0.0
2014-Jul-19 07:33N 52°25' E 004°48'0 0.0
2014-Jul-19 06:33N 52°25' E 004°48'0 0.0
2014-Jul-19 05:33N 52°25' E 004°48'0 0.0
2014-Jul-19 04:33N 52°25' E 004°48'0 0.0
2014-Jul-19 03:33N 52°25' E 004°48'0 0.0
2014-Jul-19 02:33N 52°25' E 004°48'0 0.0
2014-Jul-19 01:33N 52°25' E 004°48'0 0.0
2014-Jul-19 00:33N 52°25' E 004°48'0 0.0
2014-Jul-18 23:33N 52°25' E 004°48'2 1.7
2014-Jul-18 22:33N 52°25' E 004°50'6 6.2
2014-Jul-18 21:33N 52°21' E 004°58'7 7.3
2014-Jul-18 20:33N 52°14' E 005°01'7 7.0
2014-Jul-18 19:33N 52°07' E 005°04'8 7.7
2014-Jul-18 18:33N 52°01' E 005°09'7 6.6
2014-Jul-18 17:33N 51°58' E 005°19'6 5.7
2014-Jul-18 16:33N 51°55' E 005°27'4 4.1
2014-Jul-18 15:33N 51°54' E 005°33'10 9.7
2014-Jul-18 14:28N 51°52' E 005°50'11 7.9
2014-Jul-18 13:04N 51°51' E 006°08'35 5.3
2014-Jul-18 06:33N 51°30' E 006°52'6 4.3
2014-Jul-18 05:10N 51°31' E 007°02'1 1.7
2014-Jul-18 04:33N 51°32' E 007°03'0 0.0
2014-Jul-18 03:33N 51°32' E 007°03'0 0.0
2014-Jul-18 02:33N 51°32' E 007°03'0 0.0
2014-Jul-18 01:33N 51°32' E 007°03'0 0.0
2014-Jul-18 00:33N 51°32' E 007°03'0 0.0
2014-Jul-17 23:33N 51°32' E 007°03'0 0.0
2014-Jul-17 22:33N 51°32' E 007°03'0 0.0
2014-Jul-17 21:33N 51°32' E 007°03'0 0.0
2014-Jul-17 20:33N 51°32' E 007°03'0 0.0
2014-Jul-17 09:26N 51°32' E 007°03'0 0.0
2014-Jul-17 07:27N 51°32' E 007°03'0 0.0
2014-Jul-16 20:03N 51°32' E 007°03'0 0.0
2014-Jul-16 05:19N 51°32' E 007°03'0 0.0
2014-Jul-15 14:32N 51°32' E 007°03'0 0.1
2014-Jul-15 13:33N 51°32' E 007°03'0 0.0
2014-Jul-15 12:31N 51°32' E 007°03'0 0.0
2014-Jul-15 11:32N 51°32' E 007°03'0 0.0
2014-Jul-15 10:33N 51°32' E 007°03'0 0.0
2014-Jul-15 09:31N 51°32' E 007°03'0 0.0
2014-Jul-15 08:21N 51°32' E 007°03'0 0.0
2014-Jul-15 07:32N 51°32' E 007°03'0 0.0
2014-Jul-15 06:33N 51°32' E 007°03'0 0.0
2014-Jul-15 05:33N 51°32' E 007°03'0 0.0
2014-Jul-15 04:33N 51°32' E 007°03'0 0.0
2014-Jul-15 03:33N 51°32' E 007°03'0 0.0
2014-Jul-15 02:33N 51°32' E 007°03'7 3.1
2014-Jul-15 00:22N 51°30' E 006°52'  

Dump ship's entire track history